Regional Weather Roundup
Issued by NWS Charleston, WV

Home | Current Version | Previous Version | Text Only | Print | Product List | Glossary Off
Versions: 1 2 3 4 5 6 7 8 9 10 11 12 13 14 15 16 17 18 19 20 21 22 23 24 25 26 27 28 29 30 31 32 33 34 35 36 37 38 39 40 41 42 43 44 45 46 47 48 49 50

000
ASUS41 KRLX 051110
RWRRLX
West Virginia Regional Weather Roundup
National Weather Service Charleston WV
600 AM EST MON DEC 05 2016

Note: "fair" indicates few or no clouds below 12,000 feet with no
significant weather and/or obstructions to visibility.

WVZ003-051200-
Northern Panhandle of West Virginia

CITY           SKY/WX    TMP DP  RH WIND       PRES   REMARKS
WHEELING       CLOUDY    41  36  82 W16G23    29.98R
$$

WVZ009-051200-
Northwest West Virginia

CITY           SKY/WX    TMP DP  RH WIND       PRES   REMARKS
PARKERSBURG    CLOUDY    45  39  79 W14       30.05R
$$

WVZ006-051200-
Western West Virginia

CITY           SKY/WX    TMP DP  RH WIND       PRES   REMARKS
HUNTINGTON     CLOUDY    46  40  79 NW3       30.05R
$$

WVZ015-051200-
West Central West Virginia

CITY           SKY/WX    TMP DP  RH WIND       PRES   REMARKS
CHARLESTON     CLOUDY    47  40  76 NW9G17    30.04R
$$

WVZ022-031-051200-
North Central West Virginia

CITY           SKY/WX    TMP DP  RH WIND       PRES   REMARKS
CLARKSBURG     CLOUDY    45  40  82 W9        30.00R
MORGANTOWN     CLOUDY    47  39  74 W6        29.99R
$$

WVZ025-035-042-045-051200-
Southern West Virginia

CITY           SKY/WX    TMP DP  RH WIND       PRES   REMARKS
BECKLEY        CLOUDY    43  39  86 NW7       30.00R
LOGAN          CLOUDY    46  43  87 VRB6      30.02
BLUEFIELD      CLOUDY    42  40  92 W8        29.99R
LEWISBURG      CLOUDY    36  36  99 CALM      29.98S
$$

WVZ047-051200-
Northern Mountains of West Virginia

CITY           SKY/WX    TMP DP  RH WIND       PRES   REMARKS
ELKINS         CLOUDY    44  37  76 W10G22    29.99R
$$

WVZ052-051200-
Eastern Panhandle of West Virginia

CITY           SKY/WX    TMP DP  RH WIND       PRES   REMARKS
MARTINSBURG    CLOUDY    37  35  92 S5        29.95S
PETERSBURG     CLOUDY    41  40  95 W5        29.94R
$$



USA.gov is the U.S. government's official web portal to all federal, state and local government web resources and services.